Satellite-Ground Cal/Val Region Overpasses Predictions

Prediction of Satellite NPP Overpassing Cal/Val Region: PacNW

Region Location: (Latitude: 10.00, Longitude: 139.50) to (Latitude: 22.70, Longitude: 165.60).

Table of predicted overpasses for the next 14.0 days since TLE Epoch: 2/25/2018
Interval Starting Time Starting Location Ending Time Ending Location
1 02/25/2018 15:17:07 ( 22.69, 155.60) 02/25/2018 15:20:43 ( 10.01, 152.59)
2 02/26/2018 02:26:11 ( 10.01, 163.13) 02/26/2018 02:29:47 ( 22.69, 160.11)
3 02/26/2018 14:58:04 ( 22.68, 160.36) 02/26/2018 15:01:39 ( 10.06, 157.36)
4 02/27/2018 02:09:55 ( 19.77, 165.59) 02/27/2018 02:10:45 ( 22.70, 164.87)
5 02/27/2018 03:48:39 ( 10.03, 142.51) 02/27/2018 03:52:14 ( 22.65, 139.51)
6 02/27/2018 14:39:02 ( 22.66, 165.12) 02/27/2018 14:42:37 ( 10.04, 162.12)
7 02/27/2018 16:20:32 ( 22.65, 139.74) 02/27/2018 16:20:48 ( 21.72, 139.51)
8 02/28/2018 03:29:36 ( 10.04, 147.27) 02/28/2018 03:33:11 ( 22.66, 144.27)
9 02/28/2018 16:01:28 ( 22.70, 144.51) 02/28/2018 16:05:04 ( 10.02, 141.50)
10 03/01/2018 03:10:34 ( 10.06, 152.03) 03/01/2018 03:14:09 ( 22.68, 149.02)
11 03/01/2018 15:42:26 ( 22.68, 149.27) 03/01/2018 15:46:02 ( 10.00, 146.26)
12 03/02/2018 02:51:30 ( 10.01, 156.80) 03/02/2018 02:55:06 ( 22.69, 153.78)
13 03/02/2018 15:23:23 ( 22.67, 154.03) 03/02/2018 15:26:58 ( 10.05, 151.03)
14 03/03/2018 02:32:28 ( 10.03, 161.55) 03/03/2018 02:36:03 ( 22.65, 158.55)
15 03/03/2018 15:04:21 ( 22.65, 158.79) 03/03/2018 15:07:56 ( 10.03, 155.78)
16 03/04/2018 02:14:18 ( 13.16, 165.60) 03/04/2018 02:17:00 ( 22.67, 163.31)
17 03/04/2018 03:54:55 ( 10.05, 140.94) 03/04/2018 03:56:40 ( 16.22, 139.50)
18 03/04/2018 14:45:17 ( 22.70, 163.56) 03/04/2018 14:48:53 ( 10.02, 160.54)
19 03/05/2018 03:35:52 ( 10.01, 145.71) 03/05/2018 03:39:28 ( 22.69, 142.69)
20 03/05/2018 14:29:29 ( 11.29, 165.60) 03/05/2018 14:29:51 ( 10.00, 165.30)
21 03/05/2018 16:07:45 ( 22.67, 142.94) 03/05/2018 16:11:20 ( 10.05, 139.94)
22 03/06/2018 03:16:50 ( 10.03, 150.46) 03/06/2018 03:20:25 ( 22.65, 147.46)
23 03/06/2018 15:48:42 ( 22.66, 147.70) 03/06/2018 15:52:17 ( 10.03, 144.69)
24 03/07/2018 02:57:47 ( 10.04, 155.22) 03/07/2018 03:01:22 ( 22.67, 152.22)
25 03/07/2018 15:29:39 ( 22.70, 152.47) 03/07/2018 15:33:15 ( 10.02, 149.45)
26 03/08/2018 02:38:44 ( 10.00, 159.99) 03/08/2018 02:42:20 ( 22.68, 156.98)
27 03/08/2018 15:10:36 ( 22.68, 157.23) 03/08/2018 15:14:12 ( 10.00, 154.21)
28 03/09/2018 02:19:41 ( 10.02, 164.75) 03/09/2018 02:23:17 ( 22.70, 161.73)
29 03/09/2018 14:51:34 ( 22.67, 161.98) 03/09/2018 14:55:09 ( 10.05, 158.98)
30 03/10/2018 03:42:09 ( 10.04, 144.13) 03/10/2018 03:45:44 ( 22.67, 141.13)
31 03/10/2018 14:33:51 ( 17.96, 165.59) 03/10/2018 14:36:06 ( 10.03, 163.74)
32 03/10/2018 16:14:00 ( 22.70, 141.38) 03/10/2018 16:16:12 ( 14.95, 139.50)


NCC Satellite Cal/Val Overpasses Prediction Service
